Regional Weather Roundup
Issued by NWS

Home | Current Version | Previous Version | Text Only | Print | Product List | Glossary Off
Versions: 1 2 3 4 5 6 7 8 9 10 11 12 13 14 15 16 17 18 19 20 21 22 23 24 25 26 27 28 29 30 31 32 33 34 35 36 37 38 39 40 41 42 43 44 45 46 47 48 49 50

000
ASUS45 KBOI 280110
RWRID
WEATHER ROUNDUP FOR IDAHO
NATIONAL WEATHER SERVICE BOISE ID
700 PM MDT FRI MAR 27 2015

NOTE: "FAIR" INDICATES FEW OR NO CLOUDS BELOW 12000 FEET
WITH NO SIGNIFICANT WEATHER AND/OR OBSTRUCTIONS TO VISIBILITY

IDZ012-014-280200-
SOUTHWEST IDAHO


CITY           SKY/WX    TMP DP  RH WIND       PRES   REMARKS
BOISE          SUNNY     75  40  28 S3        30.00F
CALDWELL       SUNNY     75  46  35 NE8       29.99F
MOUNTAIN HOME  SUNNY     75  38  25 E6        30.00
$$

IDZ016-017-280200-
SOUTHCENTRAL IDAHO


CITY           SKY/WX    TMP DP  RH WIND       PRES   REMARKS
BURLEY         CLEAR     72  35  25 W3        30.07F
JEROME         CLEAR     71  34  25 N3        30.08F
TWIN FALLS     CLEAR     73  39  29 NE6       30.08F
$$

IDZ019>023-280200-
SOUTHEAST IDAHO


CITY           SKY/WX    TMP DP  RH WIND       PRES   REMARKS
IDAHO FALLS    CLEAR     68  33  27 SW13      30.12F
POCATELLO      PTCLDY    70  33  25 SW6       30.11F
REXBURG        CLEAR     66  31  27 S12       30.11F
$$

IDZ006-010-011-018-031-032-280200-
CENTRAL IDAHO MOUNTAINS


CITY           SKY/WX    TMP DP  RH WIND       PRES   REMARKS
MCCALL         SUNNY     64  39  39 S10       30.08F
HAILEY         CLEAR     66  36  32 S7        30.13F
STANLEY          N/A     61  33  35 W5        30.18F
SALMON         PTCLDY    70  36  28 CALM      30.00S
CHALLIS        CLEAR     68  27  21 W9        30.07S
$$

IDZ002-004-006-007-026-280200-
NORTHERN IDAHO


CITY           SKY/WX    TMP DP  RH WIND       PRES   REMARKS
LEWISTON       SUNNY     74  52  46 S5        29.89F
LOWELL           N/A     60  52  74 N5        29.90F
COEUR D`ALENE  SUNNY     70  48  46 W9        29.91F
MULLAN PASS    SUNNY     54  35  48 VRB6      30.06F
$$



USA.gov is the U.S. government's official web portal to all federal, state and local government web resources and services.